KT4FD Weather Reports


time (UTC)temp
F
wind
direction
speed
knots
gust
knots
rain 1hr
in
rain 24hr
in
rain mn
in
humidity
%
barometer
mb
20260903151003 86 30 0.0 0.0 0.00 0.00 0.00 71 1019.6
20260903140003 79 30 0.0 0.0 0.00 0.00 0.00 78 1019.6
20260903135002 77 30 0.0 0.0 0.00 0.00 0.00 88 1019.6
20260903134002 76 30 0.0 0.0 0.00 0.00 0.00 90 1019.8
20260903133002 74 30 0.0 0.0 0.00 0.00 0.00 90 1019.9
20260903132003 73 30 0.0 0.0 0.00 0.00 0.00 90 1019.9
20260903131003 72 30 0.0 0.0 0.00 0.00 0.00 90 1020.1
20260903130003 71 30 0.0 0.0 0.00 0.00 0.00 90 1020.1
20260903120002 69 30 0.0 0.0 0.00 0.00 0.00 91 1020.1
20260903115002 69 30 0.0 0.0 0.00 0.00 0.00 91 1019.8
20260903114003 69 30 0.0 0.0 0.00 0.00 0.00 91 1019.7
20260903113003 69 30 0.0 0.0 0.00 0.00 0.00 91 1019.7
20260903112003 69 30 0.0 0.0 0.00 0.00 0.00 91 1019.4
20260903111002 69 30 0.0 0.0 0.00 0.00 0.00 91 1019.2
20260903110002 69 30 0.0 0.0 0.00 0.00 0.00 91 1019.2
20260903105003 70 30 0.0 0.0 0.00 0.00 0.00 91 1019.2
20260903104003 70 30 0.0 0.0 0.00 0.00 0.00 91 1019.1
20260903103002 70 30 0.0 0.0 0.00 0.00 0.00 91 1019.0
20260903102002 70 30 0.0 0.0 0.00 0.00 0.00 91 1018.9
20260903101003 70 30 0.0 0.0 0.00 0.00 0.00 91 1018.8
20260903100002 70 30 0.0 0.0 0.00 0.00 0.00 91 1018.7
20260903075002 71 30 0.0 0.0 0.00 0.00 0.00 91 1018.9
20260903074002 71 30 0.0 0.0 0.00 0.00 0.00 91 1018.8
20260903073002 71 30 0.0 0.0 0.00 0.00 0.00 91 1018.9
20260903072003 71 30 0.0 0.0 0.00 0.00 0.00 91 1018.9
20260903071003 71 30 0.0 0.0 0.00 0.00 0.00 91 1018.9
20260903070002 71 30 0.0 0.0 0.00 0.00 0.00 91 1018.9
20260903045002 73 30 0.0 2.6 0.00 0.00 0.00 90 1019.3
20260903044003 73 30 0.0 0.0 0.00 0.00 0.00 90 1019.1
20260903043003 73 30 0.0 0.0 0.00 0.00 0.00 90 1019.1
20260903042003 73 30 0.0 0.0 0.00 0.00 0.00 90 1019.0
20260903041003 73 30 0.0 0.0 0.00 0.00 0.00 90 1019.0
20260903040003 73 30 0.0 0.0 0.00 0.00 0.00 90 1019.1
20260903035003 73 30 0.0 0.0 0.00 0.00 0.00 90 1019.1
20260903034003 73 30 0.0 0.0 0.00 0.00 0.00 90 1019.2
20260903033003 73 30 0.0 0.0 0.00 0.00 0.00 90 1019.3
20260903032003 74 30 0.0 0.0 0.00 0.00 0.00 90 1019.5
20260903031003 74 30 0.0 0.0 0.00 0.00 0.00 89 1019.4
20260903030003 74 30 0.0 0.0 0.00 0.00 0.00 89 1019.4
20260903025003 74 30 0.0 0.9 0.00 0.00 0.00 89 1019.3
20260903014003 76 30 0.0 0.0 0.00 0.00 0.00 88 1019.1
20260903013003 76 30 0.0 0.0 0.00 0.00 0.00 89 1018.9
20260903012003 76 30 0.0 0.0 0.00 0.00 0.00 88 1018.8
20260903011003 77 30 0.0 0.0 0.00 0.00 0.00 88 1018.6
20260903010003 77 30 0.0 0.0 0.00 0.00 0.00 87 1018.5
20260903005003 78 30 0.0 0.0 0.00 0.00 0.00 87 1018.4
20260903004003 79 30 0.0 0.0 0.00 0.00 0.00 86 1018.4
20260902233003 89 29 0.0 0.0 0.00 0.00 0.00 66 1018.1
20260902232003 91 29 0.0 0.0 0.00 0.00 0.00 61 1018.1
20260902231003 91 29 0.0 0.0 0.00 0.00 0.00 63 1018.1
20260902230003 91 29 0.0 0.0 0.00 0.00 0.00 61 1018.2
20260902225003 91 29 0.0 0.0 0.00 0.00 0.00 62 1018.2
20260902224002 91 29 0.0 0.0 0.00 0.00 0.00 61 1018.4
20260902182003 90 5 0.0 2.6 0.00 0.00 0.00 57 1020.1
20260902181002 90 5 0.9 2.6 0.00 0.00 0.00 58 1020.2
20260902180005 89 5 1.7 2.6 0.00 0.00 0.00 60 1020.1
20260902175003 88 5 0.9 2.6 0.00 0.00 0.00 61 1020.2
20260902174003 87 5 1.7 2.6 0.00 0.00 0.00 65 1020.4
20260902173003 88 5 0.9 4.3 0.00 0.00 0.00 61 1020.6
20260902172002 88 5 2.6 4.3 0.00 0.00 0.00 64 1020.7
20260902171003 88 5 4.3 7.0 0.00 0.00 0.00 61 1020.7
20260902170003 89 5 2.6 7.8 0.00 0.00 0.00 62 1020.8
20260902165003 89 5 2.6 5.2 0.00 0.00 0.00 61 1020.9
20260902164003 89 5 0.9 2.6 0.00 0.00 0.00 62 1020.9
20260902163003 88 5 2.6 5.2 0.00 0.00 0.00 60 1021.0